Regional Weather Roundup
Issued by NWS

Home | Current Version | Previous Version | Graphics & Text | Print | Product List | Glossary On
Versions: 1 2 3 4 5 6 7 8 9 10 11 12 13 14 15 16 17 18 19 20 21 22 23 24 25 26 27 28 29 30 31 32 33 34 35 36 37 38 39 40 41 42 43 44 45 46 47 48 49 50
000
ASUS43 KMPX 041401
RWRMN
WEATHER ROUNDUP FOR MINNESOTA
NATIONAL WEATHER SERVICE TWIN CITIES/CHANHASSEN MN
800 AM CST WED MAR 04 2015


NOTE: "FAIR" INDICATES FEW OR NO CLOUDS BELOW 12,000 FEET WITH NO
SIGNIFICANT WEATHER AND/OR OBSTRUCTIONS TO VISIBILITY. N/A MEANS
CURRENT SKY AND/OR WEATHER CONDITIONS ARE NOT AVAILABLE.

MNZ060>063-068>070-041500-
   Twin Cities Metro

CITY           SKY/WX    TMP DP  RH WIND       PRES   REMARKS
TWIN CITIES    MOSUNNY    1  -8  66 W9        30.19R WCI -14
ST PAUL        SUNNY      2  -6  69 W10       30.21R WCI -14
CRYSTAL        SUNNY      0  -8  69 W12       30.18R WCI -17
BLAINE         SUNNY      0  -8  71 W10       30.16R WCI -17
LAKEVILLE      SUNNY     -2  -8  78 W9        30.18R WCI -18
EDEN PRAIRIE   SUNNY     -1  -8  72 W7        30.19R WCI -14
SOUTH ST PAUL  SUNNY      2  -7  67 SW3       30.19R
LAKE ELMO      FAIR       1  -6  71 W9        30.18R WCI -14
$$
MNZ001>005-007-008-013>017-022>024-027-028-041500-
   Northwest Minnesota

CITY           SKY/WX    TMP DP  RH WIND       PRES   REMARKS
BEMIDJI        CLEAR    -10 -15  78 W8        30.06R WCI -27
HALLOCK        CLEAR     -9 -18  64 W10       30.17R WCI -28
ROSEAU         CLEAR    -11 -18  70 W9        30.10R WCI -29
WARROAD        CLEAR    -15 -20  76 W8        30.08R WCI -32
THIEF RVR FALL CLEAR    -11 -18  70 NW10      30.13R WCI -30
CROOKSTON      CLEAR     -8 -13  77 NW9       30.20R WCI -25
FOSSTON        MOCLDY   -11 -17  77 NW9       30.12R HAZE    WCI -29
DETROIT LAKES  FAIR      -4  -9  77 NW14      30.12R WCI -24
MOORHEAD       CLEAR     -2  -9  71 NW12      30.20R WCI -20
PARK RAPIDS    CLEAR     -7 -13  75 NW13      30.06R WCI -27
MAHNOMEN       FAIR      -9 -14  76 NW12      30.11R WCI -28
$$
MNZ006-009>011-018-025>026-041500-
   North Central Minnesota

CITY           SKY/WX    TMP DP  RH WIND       PRES   REMARKS
BAUDETTE       CLEAR    -14 -20  74 W9        30.04R WCI -33
FLAG ISLAND    PTCLDY   -15 -20  76 W12       30.04R WCI -36
INTL FALLS     MOSUNNY  -13 -19  75 W7        30.01R WCI -29
WASKISH        CLEAR    -11 -17  77 W8        30.06R WCI -28
BIG FORK       SUNNY     -9 -15  77 CALM      30.02R
LONGVILLE      SUNNY     -9 -13  84 W6        30.06R WCI -23
GRAND RAPIDS   CLOUDY    -8 -11  84 W9        30.01R WCI -25
CRANE LAKE     SUNNY    -11 -17  77 NW5       30.03R WCI -23
ORR            SUNNY    -11 -18  70 NW8       29.97R WCI -28
COOK           SUNNY    -13 -18  77 W6        30.00R WCI -27
WALKER         FAIR      -9 -15  77 W9        30.05R WCI -27
$$
MNZ012-019>021-037-041500-
   Northeast Minnesota

CITY           SKY/WX    TMP DP  RH WIND       PRES   REMARKS
DULUTH         LGT SNOW  -6 -13  71 W13       29.99R WCI -25
ELY            SUNNY     -9 -17  70 W7        29.95R WCI -24
HIBBING        PTSUNNY   -8 -14  74 NW7       30.00R WCI -23
EVELETH        FAIR      -8 -13  77 W5        30.00R WCI -19
DULUTH HARBOR  FAIR      -4 -11  71 SW6       30.11R WCI -16
TWO HARBORS    SUNNY     -2 -11  65 W6        29.99R WCI -14
SILVER BAY     SUNNY     -2 -13  60 W5        29.98R WCI -12
GRAND MARAIS     N/A     -2 -14  56 VRB6      30.01R WCI -14
G MARAIS ARPRT LGT SNOW  -9 -22  54 W14G26    29.82R WCI -31
$$
MNZ029>031-032-039>041-046>048-054>057-064-041500-
   West Central Minnesota

CITY           SKY/WX    TMP DP  RH WIND       PRES   REMARKS
FERGUS FALLS   CLEAR     -6 -13  71 NW9       30.21R WCI -22
WHEATON        CLEAR     -4  -9  77 W6        30.22R WCI -16
MORRIS         CLEAR     -4 -11  71 W7        30.17R WCI -18
ALEXANDRIA     MOSUNNY   -5 -10  79 W9        30.12R WCI -22
ELBOW LAKE     MOCLDY    -4  -9  77 W6        30.16R WCI -16
WADENA         SUNNY     -8 -13  77 W6        30.09R WCI -21
GLENWOOD       SUNNY     -6  -9  84 W8        30.15R FOG     WCI -21
APPLETON       MOCLDY     1  -6  71 W6        30.20R HAZE    WCI -10
BENSON         MOSUNNY   -2  -9  71 NW5       30.17R WCI -12
ORTONVILLE       N/A      0  -9  65 NW6       30.19R WCI -12
MADISON        LGT SNOW   1  -8  66 W3        30.21R
WILLMAR        FAIR       0  -9  65 NW10      30.18R HAZE    WCI -17
$$
MNZ033>034-036-042>043-049>051-058-059-041500-
   Central Minnesota

CITY           SKY/WX    TMP DP  RH WIND       PRES   REMARKS
ST CLOUD       PTSUNNY   -2 -10  69 W13       30.15R WCI -20
SAUK CENTRE    FAIR      -6 -11  77 W10       30.14R WCI -23
PAYNESVILLE    PTSUNNY   -9 -13  83 SW6       30.16R WCI -22
AITKIN         MOSUNNY   -2 -11  65 W6        30.06R WCI -14
PINE RIVER     SUNNY     -8 -13  77 W3        30.10R
BRAINERD       SUNNY     -6 -12  75 W10       30.10R WCI -24
STAPLES        SUNNY     -8 -15  71 W10       30.10R WCI -26
LITTLE FALLS   MOSUNNY   -4 -11  71 W5        30.14R WCI -15
LITCHFIELD     MOSUNNY   -2  -8  78 CALM      30.17R
BUFFALO        SUNNY     -4  -9  77 W6        30.19R WCI -16
MAPLE LAKE     MOSUNNY   -3  -8  80 SW5       30.18R WCI -13
$$
MNZ037-044-045-052-053-041500-
   East Central Minnesota

CITY           SKY/WX    TMP DP  RH WIND       PRES   REMARKS
PRINCETON      SUNNY     -2  -9  71 W8        30.14R WCI -17
MORA           SUNNY     -6 -11  77 W3        30.13R
CAMBRIDGE      SUNNY     -2 -11  65 SW5       30.13R WCI -12
RUSH CITY      SUNNY     -2 -10  69 W8        30.15R WCI -17
MOOSE LAKE     SUNNY     -4 -11  71 CALM      30.06R
HINCKLEY       FAIR      -9 -13  84 SW7       30.11R WCI -24
CLOQUET        MOSUNNY   -8 -13  77 W10       30.02R WCI -26
MCGREGOR       MOSUNNY   -4  -9  77 W9        30.07R WCI -20
$$
MNZ071>073-080-081-089-090-097-098-041500-
   Southwest Minnesota

CITY           SKY/WX    TMP DP  RH WIND       PRES   REMARKS
MONTEVIDEO     CLOUDY     0  -6  78 CALM      30.22R
GRANITE FALLS  PTSUNNY   -2  -8  76 CALM      30.22R
CANBY          CLOUDY     1  -7  70 W5        30.20R WCI  -9
MARSHALL       MOSUNNY    0  -9  65 CALM      30.19R
REDWOOD FALLS  MOSUNNY   -2 -10  69 W7        30.20R WCI -15
OLIVIA         MOSUNNY   -4  -8  84 W6        30.19R WCI -16
PIPESTONE      SUNNY     -6  -9  84 CALM      30.14R
WINDOM         SUNNY      0  -8  71 W3        30.17R
WORTHINGTON    SUNNY      0  -6  78 W7        30.18R WCI -13
JACKSON        SUNNY      1  -8  66 W6        30.17R WCI -10
TRACY          SUNNY     -1  -8  72 SW7       30.18R WCI -14
SLAYTON        SUNNY      0  -7  71 SW10      30.16R WCI -16
$$
MNZ065>067-074>077-082>085-091>093-041500-
   South Central Minnesota

CITY           SKY/WX    TMP DP  RH WIND       PRES   REMARKS
MANKATO        SUNNY      1  -8  66 W10       30.19R WCI -14
NEW ULM        SUNNY     -6 -11  77 W6        30.21R WCI -18
ST JAMES       SUNNY      1  -8  66 W3        30.21R
FAIRMONT       MOSUNNY    3  -6  66 W8        30.18R WCI -10
GLENCOE        MOSUNNY   -1  -7  77 W8        30.19R WCI -16
FARIBAULT      FAIR       0  -8  71 W5        30.19R WCI -10
OWATONNA       SUNNY      0  -8  71 W7        30.18R WCI -13
ALBERT LEA     SUNNY      1  -6  71 W7        30.17R WCI -11
$$
MNZ078>079-086>088-094>096-041500-
   Southeast Minnesota

CITY           SKY/WX    TMP DP  RH WIND       PRES   REMARKS
ROCHESTER      SUNNY      0  -8  69 NW12      30.14R WCI -17
RED WING       SUNNY      1  -8  66 W8        30.19R WCI -12
STANTON        SUNNY      1  -8  68 W8        30.18R WCI -14
DODGE CENTER   SUNNY      0  -8  71 W12       30.14R WCI -18
WINONA         SUNNY      5  -4  66 NW12      30.20R WCI -11
AUSTIN         SUNNY      1  -6  71 W12       30.17R WCI -15
PRESTON        MOSUNNY   -1  -8  71 NW14      30.15R WCI -20
$$
ABBREVIATIONS USED IN REMARKS
   TC - TEMPERATURES IN CELSIUS
  WCI - WIND CHILL INDEX
   HX - HEAT INDEX
  VSB - VISIBILITY
$$



USA.gov is the U.S. government's official web portal to all federal, state and local government web resources and services.